SCP
0 0 0 0 0 0 0 0 0 0 0 0 0 0 0 0 0 0 0 0 0 0 0 0 0 0 0 0 0 0 0 0 0 0 0 0 0 0 0 0 0 0 0
0 0 0 0 0 0 0 0 0 0 0 0 0 0 0 0 0 0 0 0 0 0 0 0 0 0 0 0 0 0 0 0 0 0 0 0 0 0 0 0 0 0 0
0 0 0 0 0 0 0 0 0 0 0 0 0 0 0 0 0 0 0 0 0 0 0 0 0 0 0 0 0 0 0 0 0 0 0 0 0 0 0 0 0 0 0
0 0 0 0 0 0 0 0 0 0 0 0 0 0 0 0 0 0 0 0 0 0 0 0 0 0 0 0 0 0 0 0 0 0 0 0 0 0 0 0 0 0 0
0 0 0 0 0 0 0 0 0 0 0 0 0 0 0 0 0 0 0 0 0 0 0 0 0 0 0 0 0 0 0 0 0 0 0 0 0 0 0 0 0 0 0
0 0 0 0 0 0 0 0 0 0 0 0 0 0 0 0 0 0 0 0 0 0 0 0 0 0 0 0 0 0 0 0 0 0 0 0 0 0 0 0 0 0 0
0 0 0 0 0 0 0 0 0 0 0 0 0 0 0 0 0 0 0 0 0 0 0 0 0 0 0 0 0 0 0 0 0 0 0 0 0 0 0 0 0 0 0
0 0 0 0 0 0 0 0 0 0 0 0 0 0 0 0 0 0 0 0 0 0 0 0 0 0 0 0 0 0 0 0 0 0 0 0 0 0 0 0 0 0 0
0 0 0 0 0 0 0 0 0 0 0 0 0 0 0 0 0 0 0 0 0 0 0 0 0 0 0 0 0 0 0 0 0 0 0 0 0 0 0 0 0 0 0
0 0 0 0 0 0 0 0 0 0 0 0 0 0 0 0 0 0 0 0 0 0 0 0 0 0 0 0 0 0 0 0 0 0 0 0 0 0 0 0 0 0 0
0 0 0 0 0 0 0 0 0 0 0 0 0 0 0 0 0 0 0 0 0 0 0 0 0 0 0 0 0 0 0 0 0 0 0 0 0 0 0 0 0 0 0
0 0 0 0 0 0 0 0 0 0 0 0 0 0 0 0 0 0 0 0 0 0 0 0 0 0 0 0 0 0 0 0 0 0 0 0 0 0 0 0 0 0 0
0 0 0 0 0 0 0 0 0 0 0 0 0 0 0 0 0 0 0 0 0 0 0 0 0 0 0 0 0 0 0 0 0 0 0 0 0 0 0 0 0 0 0
0 0 0 0 0 0 0 0 0 0 0 0 0 0 0 0 0 0 0 0 0 0 0 0 0 0 0 0 0 0 0 0 0 0 0 0 0 0 0 0 0 0 0
0 0 0 0 0 0 0 0 0 0 0 0 0 0 0 0 0 0 0 0 0 0 0 0 0 0 0 0 0 0 0 0 0 0 0 0 0 0 0 0 0 0 0
0 0 0 0 0 0 0 0 0 0 0 0 0 0 0 0 0 0 0 0 0 0 0 0 0 0 0 0 0 0 0 0 0 0 0 0 0 0 0 0 0 0 0
0 0 0 0 0 0 0 0 0 0 0 0 0 0 0 1 0 0 0 0 0 0 0 0 0 0 0 0 0 0 0 0 0 0 0 0 0 0 0 0 0 0 0
0 0 0 0 0 0 0 0 0 0 0 0 0 0 0 1 1 1 1 0 0 0 0 0 0 0 0 0 0 0 0 0 0 0 0 0 0 0 0 0 0 0 0
0 0 0 0 0 0 0 0 0 0 0 0 0 0 0 1 1 1 0 0 0 0 0 0 0 0 0 0 0 0 0 0 0 0 0 0 0 0 0 0 0 0 0
0 0 0 0 0 0 0 0 0 0 0 0 0 0 0 0 0 0 0 0 0 0 0 0 0 0 0 0 0 0 0 0 0 0 0 0 0 0 0 0 0 0 0
0 0 0 0 0 0 0 0 0 0 0 0 0 0 0 0 0 0 0 0 0 0 0 0 0 0 0 0 0 0 0 0 0 0 0 0 0 0 0 0 0 0 0
0 0 0 0 0 0 0 0 0 0 0 0 0 0 0 0 0 0 0 0 0 0 0 0 0 0 0 0 0 0 0 0 0 0 0 0 0 0 0 0 0 0 0
0 0 0 0 0 0 0 0 0 0 0 0 0 0 0 0 0 0 0 0 0 0 0 0 0 0 0 0 0 0 0 0 0 0 0 0 0 0 0 0 0 0 0
0 0 0 0 0 0 0 0 0 0 0 0 0 0 0 0 0 0 0 0 0 0 0 0 0 0 0 0 0 0 0 0 0 0 0 0 0 0 0 0 0 0 0
0 0 0 0 0 0 0 0 0 0 0 0 0 0 0 0 0 0 0 0 0 0 0 0 0 0 0 0 0 0 0 0 0 0 0 0 0 0 0 0 0 0 0
0 0 0 0 0 0 0 0 0 0 0 0 0 0 0 0 0 0 0 0 0 0 0 0 0 0 0 0 0 0 0 0 0 0 0 0 0 0 0 0 0 0 0
Wind_Speed
4 4 3 2 3 4 5 4 4 4 4 4 4 4 3 3 3 4 6 9 8 7 8 8 8 7 7 7 7 7 6 6 6 6 5 5 5 5 4 4 4 4 3
3 3 4 3 3 3 3 3 4 4 3 3 4 4 4 4 4 3 5 8 9 7 7 8 8 8 8 8 7 7 7 7 7 6 6 5 5 5 5 5 4 4 4
5 4 4 4 4 4 4 3 4 4 4 4 4 4 3 3 4 4 4 5 7 9 8 8 8 8 8 8 8 8 7 7 7 7 7 6 6 6 5 5 5 5 5
5 4 4 4 4 4 4 4 4 3 3 3 3 3 3 3 4 4 4 4 4 6 10 10 8 8 8 9 9 9 9 8 8 8 8 8 7 7 6 6 6 6 6
6 5 4 3 5 4 4 4 4 3 3 3 3 4 3 3 4 4 4 5 5 4 5 10 9 8 9 9 9 9 9 9 9 9 9 9 8 7 6 6 6 5 5
7 6 5 5 6 4 4 3 3 3 2 3 3 3 3 3 3 3 5 5 5 6 5 6 7 9 10 9 8 9 9 10 9 10 10 9 8 7 7 6 6 5 5
7 6 5 6 5 5 5 5 4 5 4 3 3 3 3 4 4 4 4 4 5 5 5 5 5 4 6 10 9 8 8 8 9 9 9 9 8 8 7 6 6 5 5
7 7 7 6 6 5 6 5 5 4 4 4 3 2 3 4 4 4 4 4 4 4 4 6 5 4 4 4 6 9 8 8 7 8 8 8 8 7 7 6 5 5 5
8 7 7 7 5 6 6 6 6 6 4 4 4 3 3 2 3 3 3 3 3 3 4 3 5 5 5 4 5 9 9 7 7 7 7 8 8 7 7 6 6 5 5
8 8 8 7 6 6 5 7 7 5 5 5 4 4 4 3 2 3 4 4 4 3 3 3 3 4 5 4 3 5 7 6 6 6 6 6 6 6 6 6 6 5 4
8 8 8 7 7 7 7 7 5 7 5 6 4 4 4 3 5 3 3 3 3 3 3 3 3 3 4 4 4 6 8 6 5 5 5 5 5 6 5 5 4 3 3
6 9 9 7 7 7 7 7 7 8 6 5 5 5 5 4 5 4 4 4 3 2 2 1 2 2 2 3 3 8 8 7 6 6 6 6 6 6 6 5 4 4 4
6 8 8 8 7 7 7 7 7 7 7 7 7 6 5 5 4 4 3 3 3 2 2 2 1 1 2 2 4 8 7 7 7 7 7 8 8 8 8 8 7 7 7
6 6 7 8 8 8 8 7 6 7 6 7 8 7 5 5 4 5 4 4 4 3 3 3 2 2 2 3 5 6 6 9 8 9 9 9 9 9 10 10 10 10 10
6 7 7 7 7 7 7 6 6 7 6 7 7 7 7 5 5 5 5 5 5 4 3 4 3 2 2 3 5 5 6 10 10 10 10 10 11 11 11 11 11 11 10
6 7 7 7 7 7 7 7 6 6 7 6 5 6 6 5 5 5 5 5 4 4 2 2 2 3 3 5 6 6 8 12 11 11 11 11 11 11 11 11 11 10 9
6 7 7 7 7 7 7 6 7 6 7 6 6 7 7 5 4 4 4 4 4 3 3 2 3 4 5 5 6 5 6 6 8 11 11 11 11 10 10 10 9 9 8
6 6 6 6 7 7 7 7 7 6 6 7 7 6 6 5 5 5 4 4 3 3 4 5 4 4 5 5 6 5 5 5 7 11 11 11 10 10 9 9 9 8 7
5 6 6 6 6 6 6 6 6 6 6 6 6 6 6 6 6 5 5 4 4 4 4 5 5 4 4 5 6 5 6 4 6 9 10 10 10 10 9 9 8 7 7
5 5 5 5 5 5 5 5 5 5 5 4 4 4 5 5 6 5 4 5 4 4 5 5 6 5 5 5 5 5 5 4 4 5 6 7 9 10 9 9 8 7 6
4 4 4 4 4 4 3 4 4 4 4 4 3 3 3 2 1 1 2 4 5 4 5 5 5 5 6 6 6 5 6 5 4 3 4 4 5 5 6 7 8 7 5
3 3 3 3 3 1 2 1 2 3 3 3 3 2 2 4 5 5 4 3 3 5 5 5 5 6 6 6 5 6 6 6 4 3 3 3 2 3 2 3 7 6 4
3 3 2 2 2 2 3 3 2 2 2 2 3 3 2 3 6 6 7 7 5 4 2 3 5 5 6 6 7 7 6 4 3 4 4 3 3 3 2 5 7 4 2
3 2 2 2 2 3 4 3 3 3 2 2 2 3 3 4 4 6 6 6 5 4 3 3 3 3 4 5 6 6 7 6 5 3 3 3 3 2 2 4 8 5 3
3 3 2 3 3 3 4 4 3 3 3 3 2 2 3 4 6 7 8 7 7 6 9 11 10 9 9 7 5 6 6 6 5 4 3 2 3 2 2 3 6 8 6
3 3 3 2 3 3 3 3 3 3 4 4 3 3 4 5 6 6 7 8 8 7 7 8 9 9 8 8 5 4 5 5 4 4 4 3 3 3 3 2 2 4 6
Wind_Direction
168 153 149 160 164 147 159 164 150 142 152 157 158 153 150 121 136 146 130 151 162 170 171 170 172 170 170 170 173 169 170 173 170 168 168 169 174 176 180 178 182 182 187
162 169 164 171 169 172 160 166 154 160 172 151 164 155 169 156 152 165 150 152 167 177 181 179 180 180 184 184 185 183 184 186 185 184 186 189 194 198 200 198 201 208 210
170 187 171 182 171 162 161 186 172 176 176 173 168 170 179 172 163 174 170 161 165 176 184 187 187 188 193 195 197 197 198 198 197 195 198 201 204 209 217 216 214 219 220
191 204 190 188 171 183 181 179 199 189 187 188 171 190 178 171 174 179 183 181 180 174 176 185 192 196 203 205 207 208 208 209 207 205 208 212 214 218 224 226 226 228 229
201 212 204 176 190 194 193 200 182 197 193 195 184 181 187 182 182 192 188 186 183 195 175 165 187 200 210 214 216 216 214 214 213 214 216 217 219 220 221 224 226 230 232
205 215 206 193 204 195 199 210 179 201 217 212 226 167 189 182 196 190 204 189 186 194 195 178 186 193 203 213 218 222 219 217 214 214 214 215 217 216 214 218 220 227 231
205 215 222 193 211 204 212 205 199 197 207 202 212 201 200 198 192 193 209 201 189 192 191 190 209 198 186 198 212 221 221 217 212 209 211 215 216 213 211 214 218 226 233
212 208 219 216 207 207 214 218 212 225 207 198 222 214 208 190 199 197 191 195 196 189 194 194 197 202 221 188 176 196 207 211 213 213 213 213 213 212 209 212 212 216 219
218 225 216 227 218 220 210 215 213 219 225 213 222 237 237 211 182 173 193 188 191 197 204 196 200 196 205 199 178 177 188 201 212 218 219 215 210 203 202 200 204 208 212
222 222 222 223 224 228 217 221 213 222 226 229 210 234 266 304 250 184 182 180 184 200 210 217 200 195 202 201 169 140 165 186 198 205 205 200 195 191 192 196 199 201 200
221 225 222 220 221 229 226 234 222 231 225 231 229 219 223 227 244 239 213 189 179 187 190 205 208 200 193 194 189 153 149 160 169 177 176 171 171 171 168 166 168 159 143
216 221 222 218 221 228 224 225 226 225 237 237 244 241 228 224 225 225 223 211 195 182 159 157 203 192 188 178 157 121 134 143 148 146 141 136 134 136 135 133 130 127 120
214 215 220 217 221 224 228 225 222 236 229 228 233 239 243 240 235 231 224 228 208 185 171 177 194 186 175 156 128 127 129 133 134 130 125 119 116 112 108 104 102 99 96
223 215 219 220 223 225 228 222 229 226 227 228 236 242 248 245 237 235 230 227 218 205 189 177 157 167 148 138 115 132 125 123 124 122 118 115 112 107 103 99 93 88 83
218 211 219 223 226 225 229 227 235 231 226 229 234 226 235 238 236 242 235 233 234 227 206 172 172 147 145 110 120 131 124 116 116 114 112 110 108 105 103 99 95 90 85
220 212 216 222 223 225 227 229 231 228 228 229 237 242 238 243 235 237 235 233 233 235 224 166 153 146 129 126 117 119 111 111 107 109 108 108 109 108 105 102 98 94 89
216 217 216 220 223 226 226 225 231 228 228 228 228 225 226 244 242 240 235 234 236 231 208 160 129 124 131 128 122 125 126 123 114 110 112 112 112 111 107 103 98 91 86
213 214 216 219 223 225 222 222 226 225 226 229 229 226 225 218 218 235 233 227 218 212 198 167 154 147 139 135 131 129 126 124 117 112 112 114 114 113 109 105 97 89 84
208 212 213 216 221 223 222 226 229 227 228 231 232 227 224 221 221 220 221 215 205 190 182 170 164 150 147 143 136 125 115 111 119 120 118 116 115 114 110 105 100 94 90
207 210 215 218 217 216 219 224 228 229 228 231 233 233 231 225 222 216 208 199 190 179 172 171 158 156 151 147 146 147 138 130 126 125 111 115 121 123 118 114 110 103 95
203 205 209 209 214 217 219 218 219 216 213 214 219 223 222 191 162 196 202 182 178 180 173 171 164 161 164 166 169 165 150 139 125 137 141 138 143 143 138 133 120 104 94
191 188 196 201 204 216 92 113 214 211 207 204 205 200 170 145 123 112 105 107 153 178 180 178 175 178 175 173 162 160 154 156 155 159 157 140 153 145 140 118 107 108 103
176 177 178 188 184 126 105 126 156 195 194 193 189 180 171 135 129 128 117 108 92 80 110 183 183 181 168 168 165 166 165 163 139 148 168 152 156 152 148 115 122 129 139
173 171 165 168 158 121 113 125 137 162 147 143 155 156 147 142 136 135 125 113 100 82 83 125 146 154 149 151 163 160 148 135 125 143 190 173 163 167 151 137 149 171 189
171 166 154 153 152 129 115 132 151 136 128 124 121 126 138 138 121 130 132 127 117 102 78 79 83 93 95 110 133 147 153 162 157 157 189 196 162 166 172 175 163 182 198
166 158 137 134 142 140 123 144 162 150 141 138 126 120 107 125 133 146 146 141 136 131 125 114 105 111 114 115 118 150 168 174 163 156 163 199 169 181 180 172 178 181 192